Home > Weather > Gotha > Past weeks

Flag for Germany Weather for the Past 2 Weeks in Gotha, Thuringia, Germany

Now
50 °F

Clear.


Feels Like: 48 °F
Forecast: 38 / 62 °F
Wind: 5 mph from Northwest

Location: Erfurt-Bindersleben

Current Time: May 2, 2016 at 12:17:25 AM

Latest Report: May 1, 2016 at 11:50 PM


Visibility: 10 mi

Pressure: 30.24 "Hg

Humidity: 58%

Dew Point: 36 °F

Location of GothaLocation

Historic Weather in Gotha — Graph

°F

Gotha Temperature Yesterday

Maximum temperature yesterday: 59 °F (at 2:50 PM)
Minimum temperature yesterday: 39 °F (at 5:50 AM)
Average temperature yesterday: 50 °F

High & Low Weather Summary for the Past Weeks

 TemperatureHumidityPressure
High61 °F (Apr 21, 3:50 PM)100% (Apr 17, 2:50 AM)30.42 "Hg (Apr 17, 2:50 AM)
Low28 °F (Apr 24, 4:50 AM)41% (Apr 18, 5:20 PM)29.47 "Hg (Apr 26, 1:50 AM)
Average44 °F70%29.97 "Hg
* Reported Apr 16 10:20 PM — May 1 10:50 PM, Gotha, Weather by CustomWeather, © 2016

Note: Actual official high and low records may vary slightly from our data, if they occured in-between our weather recording intervals... More about our weather records

Advertising

Gotha Weather History for the Previous 24 Hours

Scroll right to see more
 ConditionsComfort  
Time TempWeatherWind HumidityBarometerVisibility
10:50 PM
Sun, May 1
50 °FClear.2 mph58%30.24 "Hg10 mi
10:20 PM48 °FPassing clouds.3 mph62%30.24 "HgN/A
9:50 PM50 °FPassing clouds.3 mph58%30.24 "HgN/A
9:20 PM52 °FSunny.5 mph54%30.24 "Hg10 mi
8:50 PM54 °FSunny.7 mph51%30.24 "Hg10 mi
8:20 PM55 °FSunny.10 mph47%30.24 "Hg10 mi
7:50 PM57 °FSunny.13 mph41%30.21 "Hg10 mi
7:20 PM57 °FSunny.12 mph44%30.21 "Hg10 mi
6:50 PM59 °FSunny.13 mph42%30.21 "Hg10 mi
6:20 PM59 °FSunny.14 mph42%30.21 "Hg10 mi
5:50 PM59 °FSunny.15 mph48%30.18 "Hg10 mi
5:20 PM59 °FSunny.14 mph45%30.18 "Hg10 mi
4:50 PM59 °FSunny.15 mph51%30.18 "Hg10 mi
4:20 PM59 °FPassing clouds.15 mph48%30.18 "HgN/A
3:50 PM57 °FScattered clouds.15 mph55%30.18 "HgN/A
3:20 PM59 °FScattered clouds.16 mph59%30.18 "HgN/A
2:50 PM59 °FScattered clouds.18 mph59%30.18 "HgN/A
2:20 PM57 °FScattered clouds.17 mph59%30.18 "HgN/A
1:50 PM57 °FScattered clouds.20 mph59%30.18 "HgN/A
1:20 PM57 °FScattered clouds.15 mph63%30.18 "HgN/A
12:50 PM57 °FPartly sunny.10 mph63%30.18 "HgN/A
12:20 PM54 °FPartly sunny.10 mph67%30.18 "HgN/A
11:50 AM52 °FPartly sunny.9 mph72%30.18 "HgN/A
11:20 AM52 °FPartly sunny.13 mph72%30.15 "HgN/A
10:50 AM50 °FPartly sunny.13 mph71%30.15 "HgN/A
10:20 AM48 °FPartly sunny.13 mph82%30.15 "HgN/A
9:50 AM46 °FPartly sunny.12 mph82%30.15 "HgN/A
8:50 AM45 °FSunny.9 mph87%30.12 "Hg10 mi
8:20 AM43 °FSunny.10 mph93%30.12 "Hg10 mi
7:50 AM43 °FClear.9 mph87%30.12 "Hg6 mi
7:20 AM43 °FClear.7 mph87%30.12 "Hg5 mi
6:20 AM39 °FClear.2 mph100%30.12 "Hg4 mi
5:50 AM39 °FClear.6 mph93%30.09 "Hg4 mi
5:20 AM41 °FClear.7 mph93%30.09 "Hg10 mi
4:20 AM43 °FClear.10 mph87%30.09 "Hg10 mi
3:50 AM43 °FClear.10 mph87%30.09 "Hg10 mi
3:20 AM43 °FClear.9 mph87%30.07 "Hg10 mi
2:50 AM43 °FClear.12 mph87%30.07 "Hg10 mi
2:20 AM43 °FClear.10 mph93%30.07 "Hg10 mi
1:50 AM43 °FClear.9 mph93%30.07 "Hg10 mi
1:20 AM45 °FClear.9 mph87%30.07 "Hg10 mi
12:50 AM45 °FClear.8 mph87%30.07 "Hg10 mi
12:20 AM45 °FPassing clouds.12 mph87%30.07 "HgN/A
Weather by CustomWeather, © 2016

See weather overviewHow to use our weather pages